K5WXL Weather Reports


Display with metric or nautical units.
time (UTC)temp
F
wind
direction
speed
MPH
gust
MPH
rain 1hr
in
rain 24hr
in
rain mn
in
humidity
%
barometer
mb
20260507000016 65 357 11.0 17.0 0.00 0.00 0.00 49 1015.6
20260506234516 66 12 10.0 18.0 0.00 0.00 0.00 48 1015.4
20260506233005 66 61 11.0 19.0 0.00 0.00 0.00 49 1015.2
20260506231509 66 19 12.0 19.0 0.00 0.00 0.00 48 1015.0
20260506230014 66 39 11.0 19.0 0.00 0.00 0.00 47 1014.8
20260506224518 66 32 9.0 17.0 0.00 0.00 0.00 47 1014.7
20260506223027 67 69 11.0 16.0 0.00 0.00 0.00 48 1014.8
20260506221505 66 25 13.0 19.0 0.00 0.00 0.00 49 1014.7
20260506220012 66 17 8.0 18.0 0.00 0.00 0.00 48 1014.8
20260506214515 66 55 10.0 18.0 0.00 0.00 0.00 48 1014.9
20260506213018 66 49 13.0 20.0 0.00 0.00 0.00 49 1014.9
20260506211522 66 53 13.0 20.0 0.00 0.00 0.00 50 1015.1
20260506210009 65 58 10.0 21.0 0.00 0.00 0.00 51 1015.2
20260506204513 65 31 12.0 18.0 0.00 0.00 0.00 51 1015.3
20260506203018 64 15 9.0 20.0 0.00 0.00 0.00 52 1015.4
20260506201522 64 36 10.0 17.0 0.00 0.00 0.00 54 1015.5
20260506200023 64 68 12.0 20.0 0.00 0.00 0.00 52 1015.5
20260506194511 63 19 10.0 20.0 0.00 0.00 0.00 55 1015.4
20260506193022 62 52 14.0 20.0 0.00 0.00 0.00 56 1015.4
20260506191520 61 25 13.0 21.0 0.00 0.00 0.00 56 1015.6
20260506190029 61 32 14.0 24.0 0.00 0.00 0.00 57 1015.7
20260506184534 60 33 14.0 22.0 0.00 0.00 0.00 58 1015.9
20260506183012 59 42 12.0 22.0 0.00 0.00 0.00 61 1016.0
20260506181523 58 23 14.0 22.0 0.00 0.00 0.00 62 1016.0
20260506180025 57 60 15.0 23.0 0.00 0.00 0.00 62 1016.2
20260506174530 56 56 15.0 20.0 0.00 0.00 0.00 65 1016.6
20260506173024 55 29 11.0 18.0 0.00 0.00 0.00 64 1017.0
20260506171515 56 85 12.0 18.0 0.00 0.00 0.00 65 1017.2
20260506170025 55 20 12.0 18.0 0.00 0.00 0.00 66 1017.5
20260506164541 55 68 10.0 19.0 0.00 0.00 0.00 64 1017.6
20260506163024 55 61 13.0 19.0 0.00 0.00 0.00 64 1017.6
20260506161524 54 53 12.0 16.0 0.00 0.00 0.00 67 1017.6
20260506160017 53 46 13.0 22.0 0.00 0.00 0.00 66 1017.5
20260506154521 53 60 14.0 21.0 0.00 0.00 0.00 66 1017.5
20260506153026 53 51 15.0 24.0 0.00 0.00 0.00 65 1017.4
20260506151508 53 32 15.0 24.0 0.00 0.00 0.00 66 1017.4
20260506150016 52 51 15.0 21.0 0.00 0.00 0.00 69 1016.9
20260506144523 51 50 14.0 23.0 0.00 0.00 0.00 70 1016.5
20260506143024 51 56 15.0 24.0 0.00 0.00 0.00 70 1016.3
20260506141530 51 53 14.0 25.0 0.00 0.00 0.00 70 1016.1
20260506140011 51 26 16.0 25.0 0.00 0.00 0.00 71 1015.9
20260506134516 51 45 17.0 24.0 0.00 0.00 0.00 72 1015.6
20260506133019 50 20 15.0 24.0 0.00 0.00 0.00 73 1015.7
20260506131524 50 17 16.0 25.0 0.00 0.00 0.00 74 1015.5
20260506130024 49 19 14.0 22.0 0.00 0.00 0.00 74 1015.5
20260506124511 49 22 13.0 22.0 0.00 0.00 0.00 73 1015.3
20260506123020 49 44 11.0 18.0 0.00 0.00 0.00 73 1015.2
20260506121524 49 58 15.0 22.0 0.00 0.00 0.00 72 1014.9
20260506120048 49 20 11.0 22.0 0.00 0.00 0.00 72 1015.1
20260506114526 49 28 13.0 18.0 0.00 0.00 0.00 72 1014.8
20260506113016 49 46 15.0 20.0 0.00 0.00 0.00 71 1014.5
20260506111519 49 32 10.0 20.0 0.00 0.00 0.00 71 1014.2
20260506110025 49 9 16.0 21.0 0.00 0.00 0.00 70 1014.4
20260506104536 49 27 13.0 22.0 0.00 0.00 0.00 69 1014.4
20260506103038 50 345 12.0 17.0 0.00 0.00 0.00 69 1014.7
20260506101516 50 28 16.0 24.0 0.00 0.00 0.00 68 1014.1
20260506100019 50 6 10.0 18.0 0.00 0.00 0.00 69 1014.1
20260506094525 50 34 15.0 21.0 0.00 0.00 0.00 68 1013.8
20260506093028 50 33 10.0 15.0 0.00 0.00 0.00 70 1014.3
20260506091528 50 32 12.0 16.0 0.00 0.00 0.00 70 1014.0
20260506090019 50 30 9.0 16.0 0.00 0.00 0.00 72 1014.0
20260506084549 50 33 8.0 18.0 0.00 0.00 0.00 73 1013.8
20260506083024 50 39 8.0 14.0 0.00 0.00 0.00 74 1013.6
20260506081536 49 25 11.0 16.0 0.00 0.00 0.00 75 1013.3
20260506073023 49 23 10.0 17.0 0.00 0.00 0.00 79 1012.4
20260506071527 49 56 11.0 19.0 0.00 0.00 0.00 80 1012.1
20260506061508 50 23 8.0 19.0 0.00 0.00 0.00 81 1012.6
20260506044518 50 32 10.0 16.0 0.00 0.00 0.00 79 1011.9
20260506043014 50 61 11.0 19.0 0.00 0.00 0.00 79 1011.9
20260506041520 50 22 11.0 19.0 0.00 0.00 0.00 79 1011.5
20260506040032 50 27 13.0 18.0 0.00 0.00 0.00 79 1011.8
20260506034508 50 34 13.0 21.0 0.00 0.00 0.00 79 1012.0
20260506033014 50 47 15.0 21.0 0.00 0.00 0.00 78 1011.5
20260506031520 51 23 11.0 20.0 0.00 0.00 0.00 78 1011.6
20260506030023 51 38 10.0 22.0 0.00 0.00 0.00 77 1011.1
20260506024524 51 31 13.0 21.0 0.00 0.00 0.00 76 1011.1
20260506023010 52 23 13.0 21.0 0.00 0.00 0.00 76 1011.1
20260506021531 52 24 12.0 19.0 0.00 0.00 0.00 76 1010.8
20260506020025 52 14 14.0 21.0 0.00 0.00 0.00 75 1010.6
20260506014525 52 18 18.0 26.0 0.00 0.00 0.00 74 1010.3
20260506013031 53 23 13.0 23.0 0.00 0.00 0.00 74 1010.0
20260506011514 53 359 14.0 21.0 0.00 0.00 0.00 73 1009.4
20260506010020 54 27 17.0 25.0 0.00 0.00 0.00 73 1009.1
20260506004527 54 6 12.0 19.0 0.00 0.00 0.00 73 1008.9
20260506003026 54 32 14.0 21.0 0.00 0.00 0.00 72 1009.2
20260506001509 54 29 15.0 21.0 0.00 0.00 0.00 72 1009.2